Time,TemperatureF,DewpointF,PressureIn,WindDirection,WindDirectionDegrees,WindSpeedMPH,WindSpeedGustMPH,Humidity,HourlyPrecipIn,Conditions,Clouds,dailyrainin,SolarRadiationWatts/m^2,SoftwareType,DateUTC
2013-08-08 00:21:00,58.0,56.0,-100.00,North,356,4.0,7.0,92,0.00,,,0.04,0.000000,,2013-08-08 06:21:00,
2013-08-08 00:32:00,58.0,56.0,-100.00,North,356,4.0,7.0,92,0.00,,,0.04,0.000000,,2013-08-08 06:32:00,
2013-08-08 00:43:00,58.0,56.0,-100.00,North,356,4.0,7.0,92,0.00,,,0.04,0.000000,,2013-08-08 06:43:00,
2013-08-08 00:52:00,58.0,56.0,-100.00,North,356,4.0,7.0,92,0.00,,,0.04,0.000000,,2013-08-08 06:52:00,
2013-08-08 01:22:00,55.0,54.0,-100.00,NW,315,2.0,4.0,96,0.00,,,0.04,0.000000,,2013-08-08 07:22:00,
2013-08-08 01:32:00,55.0,54.0,-100.00,NW,315,2.0,4.0,96,0.00,,,0.04,0.000000,,2013-08-08 07:32:00,
2013-08-08 01:43:00,55.0,54.0,-100.00,NW,315,2.0,4.0,96,0.00,,,0.04,0.000000,,2013-08-08 07:43:00,
2013-08-08 01:53:00,55.0,54.0,-100.00,NW,315,2.0,4.0,96,0.00,,,0.04,0.000000,,2013-08-08 07:53:00,
2013-08-08 02:22:00,52.0,51.0,-100.00,NNW,332,2.0,5.0,96,0.00,,,0.04,0.000000,,2013-08-08 08:22:00,
2013-08-08 02:32:00,52.0,51.0,-100.00,NNW,332,2.0,5.0,96,0.00,,,0.04,0.000000,,2013-08-08 08:32:00,
2013-08-08 02:43:00,52.0,51.0,-100.00,NNW,332,2.0,5.0,96,0.00,,,0.04,0.000000,,2013-08-08 08:43:00,
2013-08-08 02:53:00,52.0,51.0,-100.00,NNW,332,2.0,5.0,96,0.00,,,0.04,0.000000,,2013-08-08 08:53:00,
2013-08-08 03:22:00,50.0,49.0,-100.00,NNW,327,2.0,4.0,96,0.00,,,0.04,0.000000,,2013-08-08 09:22:00,
2013-08-08 03:32:00,50.0,49.0,-100.00,NNW,327,2.0,4.0,96,0.00,,,0.04,0.000000,,2013-08-08 09:32:00,
2013-08-08 03:43:00,50.0,49.0,-100.00,NNW,327,2.0,4.0,96,0.00,,,0.04,0.000000,,2013-08-08 09:43:00,
2013-08-08 03:53:00,50.0,49.0,-100.00,NNW,327,2.0,4.0,96,0.00,,,0.04,0.000000,,2013-08-08 09:53:00,
2013-08-08 04:22:00,48.0,47.0,-100.00,NW,322,1.0,4.0,97,0.00,,,0.04,0.000000,,2013-08-08 10:22:00,
2013-08-08 04:32:00,48.0,47.0,-100.00,NW,322,1.0,4.0,97,0.00,,,0.04,0.000000,,2013-08-08 10:32:00,
2013-08-08 04:43:00,48.0,47.0,-100.00,NW,322,1.0,4.0,97,0.00,,,0.04,0.000000,,2013-08-08 10:43:00,
2013-08-08 04:52:00,48.0,47.0,-100.00,NW,322,1.0,4.0,97,0.00,,,0.04,0.000000,,2013-08-08 10:52:00,
2013-08-08 05:22:00,46.0,45.0,-100.00,NW,319,0.0,3.0,97,0.00,,,0.04,0.000000,,2013-08-08 11:22:00,
2013-08-08 05:52:00,46.0,45.0,-100.00,NW,319,0.0,3.0,97,0.00,,,0.04,0.000000,,2013-08-08 11:52:00,
2013-08-08 08:22:00,57.0,56.0,-100.00,NNE,13,1.0,4.0,95,-99.99,,,0.04,237.000000,,2013-08-08 14:22:00,
2013-08-08 08:32:00,57.0,56.0,-100.00,NNE,13,1.0,4.0,95,-99.99,,,0.04,237.000000,,2013-08-08 14:32:00,
2013-08-08 08:43:00,57.0,56.0,-100.00,NNE,13,1.0,4.0,95,-99.99,,,0.04,237.000000,,2013-08-08 14:43:00,
2013-08-08 08:53:00,57.0,56.0,-100.00,NNE,13,1.0,4.0,95,-99.99,,,0.04,237.000000,,2013-08-08 14:53:00,
2013-08-08 09:22:00,65.0,55.0,-100.00,SE,140,5.0,8.0,69,0.00,,,0.04,419.000000,,2013-08-08 15:22:00,
2013-08-08 09:32:00,65.0,55.0,-100.00,SE,140,5.0,8.0,69,0.00,,,0.04,419.000000,,2013-08-08 15:32:00,
2013-08-08 09:43:00,65.0,55.0,-100.00,SE,140,5.0,8.0,69,0.00,,,0.04,419.000000,,2013-08-08 15:43:00,
2013-08-08 09:53:00,65.0,55.0,-100.00,SE,140,5.0,8.0,69,0.00,,,0.04,419.000000,,2013-08-08 15:53:00,
2013-08-08 10:22:00,70.0,55.0,-100.00,NNE,22,4.0,10.0,59,0.00,,,0.04,607.000000,,2013-08-08 16:22:00,
2013-08-08 10:32:00,70.0,55.0,-100.00,NNE,22,4.0,10.0,59,0.00,,,0.04,607.000000,,2013-08-08 16:32:00,
2013-08-08 10:42:00,70.0,55.0,-100.00,NNE,22,4.0,10.0,59,0.00,,,0.04,607.000000,,2013-08-08 16:42:00,
2013-08-08 10:52:00,70.0,55.0,-100.00,NNE,22,4.0,10.0,59,0.00,,,0.04,607.000000,,2013-08-08 16:52:00,
2013-08-08 11:21:00,71.0,55.0,-100.00,East,94,4.0,10.0,58,0.00,,,0.04,762.000000,,2013-08-08 17:21:00,
2013-08-08 11:32:00,71.0,55.0,-100.00,East,94,4.0,10.0,58,0.00,,,0.04,762.000000,,2013-08-08 17:32:00,
2013-08-08 11:43:00,71.0,55.0,-100.00,East,94,4.0,10.0,58,0.00,,,0.04,762.000000,,2013-08-08 17:43:00,
2013-08-08 11:52:00,71.0,55.0,-100.00,East,94,4.0,10.0,58,0.00,,,0.04,762.000000,,2013-08-08 17:52:00,
2013-08-08 12:32:00,71.0,55.0,-100.00,NE,50,5.0,11.0,58,0.00,,,0.04,871.000000,,2013-08-08 18:32:00,
2013-08-08 12:43:00,71.0,55.0,-100.00,NE,50,5.0,11.0,58,0.00,,,0.04,871.000000,,2013-08-08 18:43:00,
2013-08-08 12:52:00,71.0,55.0,-100.00,NE,50,5.0,11.0,58,0.00,,,0.04,871.000000,,2013-08-08 18:52:00,
2013-08-08 13:22:00,73.0,55.0,-100.00,NNE,15,6.0,13.0,53,0.00,,,0.04,959.000000,,2013-08-08 19:22:00,
2013-08-08 13:32:00,73.0,55.0,-100.00,NNE,15,6.0,13.0,53,0.00,,,0.04,959.000000,,2013-08-08 19:32:00,
2013-08-08 13:43:00,73.0,55.0,-100.00,NNE,15,6.0,13.0,53,0.00,,,0.04,959.000000,,2013-08-08 19:43:00,
2013-08-08 13:54:00,73.0,55.0,-100.00,NNE,15,6.0,13.0,53,0.00,,,0.04,959.000000,,2013-08-08 19:54:00,
2013-08-08 14:22:00,72.0,54.0,-100.00,SE,130,7.0,19.0,54,0.00,,,0.04,767.000000,,2013-08-08 20:22:00,
2013-08-08 14:32:00,72.0,54.0,-100.00,SE,130,7.0,19.0,54,0.00,,,0.04,767.000000,,2013-08-08 20:32:00,
2013-08-08 14:42:00,72.0,54.0,-100.00,SE,130,7.0,19.0,54,0.00,,,0.04,767.000000,,2013-08-08 20:42:00,
2013-08-08 14:52:00,72.0,54.0,-100.00,SE,130,7.0,19.0,54,0.00,,,0.04,767.000000,,2013-08-08 20:52:00,
2013-08-08 15:33:00,76.0,55.0,-100.00,SE,133,6.0,12.0,48,0.00,,,0.04,751.000000,,2013-08-08 21:33:00,
2013-08-08 15:43:00,76.0,55.0,-100.00,SE,133,6.0,12.0,48,0.00,,,0.04,751.000000,,2013-08-08 21:43:00,
2013-08-08 15:53:00,76.0,55.0,-100.00,SE,133,6.0,12.0,48,0.00,,,0.04,751.000000,,2013-08-08 21:53:00,
2013-08-08 16:24:00,73.0,53.0,-100.00,ESE,104,4.0,13.0,50,0.00,,,0.04,520.000000,,2013-08-08 22:24:00,
2013-08-08 16:34:00,73.0,53.0,-100.00,ESE,104,4.0,13.0,50,0.00,,,0.04,520.000000,,2013-08-08 22:34:00,
2013-08-08 16:47:00,73.0,53.0,-100.00,ESE,104,4.0,13.0,50,0.00,,,0.04,520.000000,,2013-08-08 22:47:00,
2013-08-08 16:55:00,73.0,53.0,-100.00,ESE,104,4.0,13.0,50,0.00,,,0.04,520.000000,,2013-08-08 22:55:00,
2013-08-08 17:23:00,72.0,53.0,-100.00,SSE,152,8.0,16.0,52,0.00,,,0.04,304.000000,,2013-08-08 23:23:00,
2013-08-08 17:35:00,72.0,53.0,-100.00,SSE,152,8.0,16.0,52,0.00,,,0.04,304.000000,,2013-08-08 23:35:00,
2013-08-08 17:45:00,72.0,53.0,-100.00,SSE,152,8.0,16.0,52,0.00,,,0.04,304.000000,,2013-08-08 23:45:00,
2013-08-08 17:53:00,72.0,53.0,-100.00,SSE,152,8.0,16.0,52,0.00,,,0.04,304.000000,,2013-08-08 23:53:00,
2013-08-08 18:34:00,71.0,54.0,-100.00,SSE,153,8.0,14.0,54,0.00,,,0.02,211.000000,,2013-08-09 00:34:00,
2013-08-08 18:45:00,71.0,54.0,-100.00,SSE,153,8.0,14.0,54,0.00,,,0.02,211.000000,,2013-08-09 00:45:00,
2013-08-08 18:53:00,71.0,54.0,-100.00,SSE,153,8.0,14.0,54,0.00,,,0.02,211.000000,,2013-08-09 00:53:00,
2013-08-08 19:24:00,69.0,53.0,-100.00,SE,141,6.0,12.0,56,0.00,,,0.01,80.000000,,2013-08-09 01:24:00,
2013-08-08 19:34:00,69.0,53.0,-100.00,SE,141,6.0,12.0,56,0.00,,,0.01,80.000000,,2013-08-09 01:34:00,
2013-08-08 19:45:00,69.0,53.0,-100.00,SE,141,6.0,12.0,56,0.00,,,0.01,80.000000,,2013-08-09 01:45:00,
2013-08-08 19:56:00,69.0,53.0,-100.00,SE,141,6.0,12.0,56,0.00,,,0.01,80.000000,,2013-08-09 01:56:00,
2013-08-08 20:24:00,67.0,53.0,-100.00,SE,135,4.0,12.0,61,0.00,,,0.00,34.000000,,2013-08-09 02:24:00,
2013-08-08 20:36:00,67.0,53.0,-100.00,SE,135,4.0,12.0,61,0.00,,,0.00,34.000000,,2013-08-09 02:36:00,
2013-08-08 20:45:00,67.0,53.0,-100.00,SE,135,4.0,12.0,61,0.00,,,0.00,34.000000,,2013-08-09 02:45:00,
2013-08-08 20:55:00,67.0,53.0,-100.00,SE,135,4.0,12.0,61,0.00,,,0.00,34.000000,,2013-08-09 02:55:00,
2013-08-08 21:23:00,65.0,54.0,-100.00,SE,141,3.0,8.0,68,0.00,,,0.00,1.000000,,2013-08-09 03:23:00,
2013-08-08 21:34:00,65.0,54.0,-100.00,SE,141,3.0,8.0,68,0.00,,,0.00,1.000000,,2013-08-09 03:34:00,
2013-08-08 21:52:00,65.0,54.0,-100.00,SE,141,3.0,8.0,68,0.00,,,0.00,1.000000,,2013-08-09 03:52:00,
2013-08-08 22:22:00,63.0,54.0,-100.00,SSE,168,2.0,8.0,73,0.00,,,0.00,0.000000,,2013-08-09 04:22:00,
2013-08-08 22:33:00,63.0,54.0,-100.00,SSE,168,2.0,8.0,73,0.00,,,0.00,0.000000,,2013-08-09 04:33:00,
2013-08-08 22:43:00,63.0,54.0,-100.00,SSE,168,2.0,8.0,73,0.00,,,0.00,0.000000,,2013-08-09 04:43:00,
2013-08-08 22:53:00,63.0,54.0,-100.00,SSE,168,2.0,8.0,73,0.00,,,0.00,0.000000,,2013-08-09 04:53:00,
2013-08-08 23:22:00,62.0,54.0,-100.00,SSE,148,4.0,8.0,76,0.00,,,0.00,0.000000,,2013-08-09 05:22:00,
2013-08-08 23:32:00,62.0,54.0,-100.00,SSE,148,4.0,8.0,76,0.00,,,0.00,0.000000,,2013-08-09 05:32:00,
2013-08-08 23:43:00,62.0,54.0,-100.00,SSE,148,4.0,8.0,76,0.00,,,0.00,0.000000,,2013-08-09 05:43:00,
2013-08-08 23:52:00,62.0,54.0,-100.00,SSE,148,4.0,8.0,76,0.00,,,0.00,0.000000,,2013-08-09 05:52:00,